EW0177 Weather Reports


time (UTC)temp
C
wind
direction
speed
KPH
gust
KPH
rain 1hr
cm
rain 24hr
cm
rain mn
cm
humidity
%
barometer
mb
20260906120517 16 23 4.8 9.7 0.00 0.00 0.00 21 1018.9
20260906115517 16 23 6.4 11.3 0.00 0.00 0.00 21 1018.7
20260906114517 16 23 4.8 9.7 0.00 0.00 0.00 21 1018.5
20260906113517 16 23 6.4 8.0 0.00 0.00 0.00 21 1018.4
20260906112519 16 23 4.8 8.0 0.00 0.00 0.00 21 1018.4
20260906111517 16 23 6.4 9.7 0.00 0.00 0.00 21 1018.4
20260906110517 16 23 8.0 12.9 0.00 0.00 0.00 21 1018.3
20260906105517 16 23 4.8 9.7 0.00 0.00 0.00 22 1018.2
20260906104517 16 23 4.8 11.3 0.00 0.00 0.00 22 1018.2
20260906103517 16 23 3.2 8.0 0.00 0.00 0.00 23 1018.3
20260906102519 16 23 4.8 11.3 0.00 0.00 0.00 25 1018.4
20260906101519 16 23 8.0 11.3 0.00 0.00 0.00 27 1018.3
20260906100520 16 23 4.8 9.7 0.00 0.00 0.00 27 1018.2
20260906095519 16 0 4.8 8.0 0.00 0.00 0.00 29 1018.0
20260906094518 16 23 3.2 9.7 0.00 0.00 0.00 30 1018.1
20260906093519 16 23 3.2 8.0 0.00 0.00 0.00 31 1018.1
20260906092519 16 23 3.2 6.4 0.00 0.00 0.00 33 1018.1
20260906091519 16 23 3.2 9.7 0.00 0.00 0.00 36 1018.1
20260906090518 16 23 3.2 8.0 0.00 0.00 0.00 39 1017.9
20260906085519 17 23 3.2 6.4 0.00 0.00 0.00 43 1017.7
20260906084519 17 45 6.4 11.3 0.00 0.00 0.00 44 1017.5
20260906082519 17 45 8.0 16.1 0.00 0.00 0.00 46 1017.4
20260906081538 17 45 8.0 16.1 0.00 0.00 0.00 46 1017.3
20260906080541 17 45 9.7 19.3 0.00 0.00 0.00 45 1017.2
20260906075519 17 0 9.7 17.7 0.00 0.00 0.00 45 1017.2
20260906074518 17 0 8.0 17.7 0.00 0.00 0.00 46 1017.1
20260906073518 17 0 8.0 16.1 0.00 0.00 0.00 48 1017.1
20260906072518 17 23 8.0 14.5 0.00 0.00 0.00 48 1017.0
20260906071519 17 0 8.0 12.9 0.00 0.00 0.00 49 1017.0
20260906070518 17 0 8.0 17.7 0.00 0.00 0.00 51 1017.1
20260906065519 17 0 8.0 16.1 0.00 0.00 0.00 52 1017.2
20260906064518 17 0 8.0 17.7 0.00 0.00 0.00 52 1017.1
20260906063519 17 0 9.7 17.7 0.00 0.00 0.00 51 1017.1
20260906062702 17 0 8.0 14.5 0.00 0.00 0.00 48 1017.1
20260906061520 17 0 6.4 11.3 0.00 0.00 0.00 48 1017.0
20260906060539 18 0 6.4 11.3 0.00 0.00 0.00 49 1017.1
20260906055518 18 0 4.8 9.7 0.00 0.00 0.00 50 1017.0
20260906054518 18 23 6.4 11.3 0.00 0.00 0.00 52 1017.1
20260906053518 18 45 6.4 14.5 0.00 0.00 0.00 54 1017.1
20260906052518 18 0 6.4 12.9 0.00 0.00 0.00 56 1017.1
20260906051519 18 0 6.4 16.1 0.00 0.00 0.00 57 1016.9
20260906050558 18 23 8.0 14.5 0.00 0.00 0.00 57 1016.7
20260906045518 18 23 8.0 14.5 0.00 0.00 0.00 58 1016.9
20260906044519 19 45 8.0 14.5 0.00 0.00 0.00 58 1016.9
20260906043518 19 45 8.0 14.5 0.00 0.00 0.00 58 1016.7
20260906042518 19 45 11.3 17.7 0.00 0.00 0.00 57 1016.5
20260906041538 20 45 9.7 16.1 0.00 0.00 0.00 56 1016.4
20260906040518 20 23 8.0 14.5 0.00 0.00 0.00 53 1016.4
20260906035539 20 23 8.0 22.5 0.00 0.00 0.00 51 1016.5
20260906034519 20 23 9.7 17.7 0.00 0.00 0.00 50 1016.3
20260906033518 21 45 9.7 19.3 0.00 0.00 0.00 47 1016.2
20260906032519 21 45 11.3 20.9 0.00 0.00 0.00 46 1016.2
20260906031518 21 23 9.7 12.9 0.00 0.00 0.00 46 1016.3
20260906030518 21 23 8.0 12.9 0.00 0.00 0.00 47 1016.1
20260906025520 21 0 4.8 11.3 0.00 0.00 0.00 49 1016.1
20260906024540 21 0 6.4 14.5 0.00 0.00 0.00 51 1015.9
20260906023518 21 23 8.0 14.5 0.00 0.00 0.00 52 1015.8
20260906022519 21 0 8.0 16.1 0.00 0.00 0.00 53 1015.7
20260906021518 21 23 9.7 17.7 0.00 0.00 0.00 55 1015.5
20260906020539 22 23 8.0 14.5 0.00 0.00 0.00 55 1015.5
20260906015518 22 23 8.0 12.9 0.00 0.00 0.00 55 1015.4
20260906014518 22 45 6.4 14.5 0.00 0.00 0.00 55 1015.7
20260906013520 22 0 6.4 14.5 0.00 0.00 0.00 55 1015.6
20260906012540 22 0 6.4 14.5 0.00 0.00 0.00 54 1015.4
20260906011519 22 0 4.8 11.3 0.00 0.00 0.00 54 1015.2
20260906010518 23 23 4.8 11.3 0.00 0.00 0.00 53 1015.1
20260906005540 23 23 4.8 12.9 0.00 0.00 0.00 52 1015.0
20260906004518 23 0 6.4 14.5 0.00 0.00 0.00 51 1015.0
20260906003519 23 23 6.4 12.9 0.00 0.00 0.00 50 1015.0
20260906002518 23 23 4.8 14.5 0.00 0.00 0.00 45 1014.8
20260906001518 23 23 4.8 12.9 0.00 0.00 0.00 40 1015.0
20260906000518 23 23 4.8 6.4 0.00 0.00 0.00 41 1015.1
20260905235518 24 23 1.6 6.4 0.00 0.00 0.00 44 1015.0
20260905234518 24 23 1.6 3.2 0.00 0.00 0.00 46 1015.0
20260905233518 24 23 1.6 3.2 0.00 0.00 0.00 47 1015.1
20260905232518 24 23 1.6 4.8 0.00 0.00 0.00 49 1015.0
20260905231518 24 0 3.2 8.0 0.00 0.00 0.00 48 1014.8
20260905230518 24 23 3.2 8.0 0.00 0.00 0.00 46 1014.9
20260905225518 25 23 4.8 11.3 0.00 0.00 0.00 41 1014.9
20260905224518 25 23 1.6 8.0 0.00 0.00 0.00 39 1014.8
20260905223541 25 0 1.6 11.3 0.00 0.00 0.00 44 1014.8
20260905222518 25 0 3.2 12.9 0.00 0.00 0.00 42 1014.8
20260905221539 25 23 4.8 12.9 0.00 0.00 0.00 44 1014.6
20260905220518 25 0 4.8 9.7 0.00 0.00 0.00 45 1014.6
20260905215518 25 23 6.4 16.1 0.00 0.00 0.00 45 1014.3
20260905214519 25 23 8.0 16.1 0.00 0.00 0.00 40 1014.5
20260905213518 25 0 8.0 19.3 0.00 0.00 0.00 38 1014.4
20260905212518 25 0 9.7 22.5 0.00 0.00 0.00 40 1014.5
20260905211518 26 23 6.4 16.1 0.00 0.00 0.00 27 1014.5
20260905210518 25 23 8.0 17.7 0.00 0.00 0.00 22 1014.3
20260905205519 25 23 6.4 16.1 0.00 0.00 0.00 19 1014.4
20260905204518 25 23 4.8 9.7 0.00 0.00 0.00 19 1014.4
20260905203519 25 23 4.8 12.9 0.00 0.00 0.00 18 1014.6
20260905202518 24 0 4.8 9.7 0.00 0.00 0.00 18 1014.6
20260905201518 23 23 6.4 11.3 0.00 0.00 0.00 18 1014.7
20260905200518 23 0 4.8 11.3 0.00 0.00 0.00 18 1014.6
20260905195518 23 0 6.4 12.9 0.00 0.00 0.00 18 1014.6
20260905194518 23 23 6.4 14.5 0.00 0.00 0.00 18 1014.7
20260905193519 23 23 4.8 14.5 0.00 0.00 0.00 18 1014.8
20260905192517 23 23 9.7 19.3 0.00 0.00 0.00 18 1014.8
20260905191518 23 23 3.2 9.7 0.00 0.00 0.00 18 1014.8
20260905190518 23 0 8.0 20.9 0.00 0.00 0.00 18 1014.8
20260905185519 22 0 8.0 20.9 0.00 0.00 0.00 19 1014.7
20260905184538 22 0 6.4 20.9 0.00 0.00 0.00 19 1015.0
20260905183518 22 23 6.4 12.9 0.00 0.00 0.00 19 1015.0
20260905182518 22 23 4.8 14.5 0.00 0.00 0.00 19 1015.0
20260905181518 22 23 6.4 11.3 0.00 0.00 0.00 19 1014.9
20260905180517 22 0 6.4 12.9 0.00 0.00 0.00 19 1014.8
20260905175519 22 23 6.4 14.5 0.00 0.00 0.00 19 1014.9
20260905174517 22 0 4.8 9.7 0.00 0.00 0.00 19 1014.8
20260905173539 22 0 6.4 14.5 0.00 0.00 0.00 19 1014.7
20260905172557 22 23 4.8 9.7 0.00 0.00 0.00 19 1014.8
20260905171518 22 23 6.4 11.3 0.00 0.00 0.00 18 1014.9
20260905170517 22 0 6.4 11.3 0.00 0.00 0.00 18 1015.0
20260905165517 22 23 6.4 16.1 0.00 0.00 0.00 18 1014.9
20260905164517 22 0 6.4 12.9 0.00 0.00 0.00 18 1014.8
20260905163517 23 23 8.0 16.1 0.00 0.00 0.00 18 1014.9
20260905162517 23 23 6.4 12.9 0.00 0.00 0.00 18 1014.9
20260905161538 23 0 4.8 9.7 0.00 0.00 0.00 18 1014.8
20260905160518 23 23 4.8 11.3 0.00 0.00 0.00 18 1014.8
20260905155518 23 45 8.0 14.5 0.00 0.00 0.00 18 1014.8
20260905154517 22 23 4.8 12.9 0.00 0.00 0.00 18 1014.8
20260905153537 22 45 8.0 14.5 0.00 0.00 0.00 19 1014.6
20260905152518 22 0 8.0 14.5 0.00 0.00 0.00 19 1014.5
20260905151517 22 0 6.4 12.9 0.00 0.00 0.00 20 1014.6
20260905150517 21 23 8.0 12.9 0.00 0.00 0.00 21 1014.5
20260905145517 21 23 8.0 16.1 0.00 0.00 0.00 21 1014.6
20260905144537 21 23 8.0 16.1 0.00 0.00 0.00 22 1014.4
20260905143517 21 23 4.8 12.9 0.00 0.00 0.00 22 1014.2
20260905142517 21 23 8.0 14.5 0.00 0.00 0.00 22 1014.1
20260905141517 21 0 6.4 14.5 0.00 0.00 0.00 23 1014.2
20260905140517 20 23 8.0 12.9 0.00 0.00 0.00 23 1014.0
20260905135518 20 0 9.7 20.9 0.00 0.00 0.00 23 1013.9
20260905134537 20 23 8.0 12.9 0.00 0.00 0.00 23 1014.0
20260905133517 20 23 6.4 16.1 0.00 0.00 0.00 23 1014.1
20260905132517 20 0 4.8 14.5 0.00 0.00 0.00 23 1013.9
20260905131519 20 23 6.4 16.1 0.00 0.00 0.00 23 1013.9
20260905130519 20 23 8.0 16.1 0.00 0.00 0.00 23 1013.8
20260905125519 21 23 6.4 17.7 0.00 0.00 0.00 23 1013.8
20260905124519 21 0 6.4 14.5 0.00 0.00 0.00 23 1013.7
20260905123519 21 0 6.4 11.3 0.00 0.00 0.00 23 1013.5
20260905122519 21 0 6.4 14.5 0.00 0.00 0.00 22 1013.4
20260905121519 21 0 4.8 12.9 0.00 0.00 0.00 22 1013.5